SCO15DE EGAA-EGPH

Flight info

Callsign SCO15DE
Flight time 0h 28m
Altitude 19000
Route BLACA P600 TUNSO
Aircraft B738/M-SDE2E3FGHIRWXY/LB1

Departure

Time 2026-05-05 21:07
Airport Belfast International Airport (EGAA)

Arrival

Time 2026-05-05 21:35
Airport Edinburgh Airport (EGPH)
Time Latitude Longitude Altitude Speed Heading
2026-05-05 20:20 54.65997 -6.21766 271 ft 0 kts 245°
2026-05-05 21:00 54.66004 -6.21739 271 ft 4 kts 255°
2026-05-05 21:00 54.66008 -6.21693 271 ft 4 kts 274°
2026-05-05 21:00 54.66003 -6.21648 271 ft 4 kts 288°
2026-05-05 21:00 54.65993 -6.21605 277 ft 4 kts 292°
2026-05-05 21:01 54.65986 -6.21563 273 ft 4 kts 260°
2026-05-05 21:01 54.65987 -6.21552 272 ft 0 kts 243°
2026-05-05 21:03 54.65986 -6.21555 272 ft 1 kts 243°
2026-05-05 21:03 54.65968 -6.21589 272 ft 7 kts 205°
2026-05-05 21:03 54.65927 -6.21621 271 ft 12 kts 222°
2026-05-05 21:04 54.65874 -6.21791 271 ft 20 kts 251°
2026-05-05 21:04 54.65807 -6.22040 271 ft 25 kts 244°
2026-05-05 21:04 54.65764 -6.22335 271 ft 28 kts 264°
2026-05-05 21:04 54.65743 -6.22678 271 ft 27 kts 265°
2026-05-05 21:05 54.65685 -6.22960 271 ft 24 kts 233°
2026-05-05 21:05 54.65580 -6.23208 272 ft 28 kts 234°
2026-05-05 21:05 54.65441 -6.23383 273 ft 20 kts 201°
2026-05-05 21:05 54.65325 -6.23367 271 ft 13 kts 157°
2026-05-05 21:06 54.65296 -6.23246 274 ft 14 kts 63°
2026-05-05 21:06 54.65377 -6.22959 271 ft 45 kts 65°
2026-05-05 21:06 54.65567 -6.22256 271 ft 88 kts 65°
2026-05-05 21:06 54.65939 -6.20871 295 ft 162 kts 64°
2026-05-05 21:07 54.66446 -6.18906 853 ft 192 kts 65°
2026-05-05 21:07 54.66975 -6.16734 1830 ft 197 kts 64°
2026-05-05 21:07 54.67455 -6.14581 2812 ft 197 kts 66°
2026-05-05 21:07 54.67959 -6.12227 3085 ft 221 kts 68°
2026-05-05 21:08 54.68500 -6.09683 3629 ft 229 kts 68°
2026-05-05 21:08 54.69060 -6.07079 4302 ft 232 kts 69°
2026-05-05 21:08 54.69637 -6.04407 4838 ft 245 kts 69°
2026-05-05 21:08 54.70252 -6.01554 5449 ft 259 kts 70°
2026-05-05 21:09 54.70888 -5.98600 6314 ft 264 kts 70°
2026-05-05 21:09 54.71533 -5.95599 7133 ft 270 kts 69°
2026-05-05 21:09 54.72196 -5.92511 7875 ft 278 kts 68°
2026-05-05 21:09 54.72875 -5.89342 8660 ft 284 kts 68°
2026-05-05 21:10 54.73568 -5.86099 9445 ft 290 kts 68°
2026-05-05 21:10 54.74272 -5.82803 10241 ft 295 kts 68°
2026-05-05 21:10 54.75005 -5.79372 10613 ft 316 kts 68°
2026-05-05 21:10 54.75795 -5.75671 10865 ft 338 kts 68°
2026-05-05 21:11 54.76618 -5.71796 11467 ft 347 kts 68°
2026-05-05 21:11 54.77453 -5.67845 12232 ft 351 kts 68°
2026-05-05 21:11 54.78298 -5.63843 13031 ft 356 kts 68°
2026-05-05 21:11 54.79154 -5.59781 13813 ft 362 kts 68°
2026-05-05 21:12 54.80021 -5.55661 14542 ft 366 kts 68°
2026-05-05 21:12 54.80898 -5.51488 15307 ft 371 kts 68°
2026-05-05 21:12 54.81782 -5.47268 16101 ft 375 kts 68°
2026-05-05 21:12 54.82675 -5.43001 16875 ft 379 kts 68°
2026-05-05 21:13 54.83577 -5.38678 17622 ft 383 kts 68°
2026-05-05 21:13 54.84489 -5.34300 18369 ft 388 kts 68°
2026-05-05 21:13 54.85411 -5.29869 18929 ft 393 kts 68°
2026-05-05 21:13 54.86336 -5.25413 19056 ft 392 kts 69°
2026-05-05 21:14 54.87277 -5.20965 19071 ft 393 kts 65°
2026-05-05 21:14 54.88681 -5.16941 19064 ft 389 kts 47°
2026-05-05 21:14 54.90669 -5.13800 19070 ft 385 kts 31°
2026-05-05 21:14 54.92982 -5.11601 18816 ft 375 kts 22°
2026-05-05 21:15 54.95298 -5.09670 18565 ft 366 kts 22°
2026-05-05 21:15 54.97572 -5.07781 18309 ft 358 kts 22°
2026-05-05 21:15 54.99787 -5.05913 18037 ft 350 kts 22°
2026-05-05 21:15 55.01960 -5.04055 17755 ft 347 kts 22°
2026-05-05 21:16 55.04075 -5.02226 17488 ft 343 kts 23°
2026-05-05 21:16 55.06204 -5.00375 17229 ft 342 kts 23°
2026-05-05 21:16 55.08267 -4.98577 17111 ft 342 kts 23°
2026-05-05 21:16 55.10387 -4.96681 17079 ft 344 kts 27°
2026-05-05 21:17 55.12346 -4.94222 16855 ft 349 kts 39°
2026-05-05 21:17 55.14116 -4.91328 16533 ft 348 kts 40°
2026-05-05 21:17 55.15851 -4.88408 16228 ft 345 kts 41°
2026-05-05 21:17 55.17576 -4.85494 15943 ft 344 kts 40°
2026-05-05 21:18 55.19300 -4.82589 15627 ft 344 kts 40°
2026-05-05 21:18 55.21025 -4.79690 15327 ft 344 kts 40°
2026-05-05 21:18 55.22749 -4.76801 15031 ft 342 kts 40°
2026-05-05 21:18 55.24461 -4.73933 14732 ft 338 kts 40°
2026-05-05 21:19 55.26153 -4.71101 14436 ft 334 kts 40°
2026-05-05 21:19 55.27822 -4.68305 14164 ft 330 kts 40°
2026-05-05 21:19 55.29472 -4.65541 13881 ft 327 kts 40°
2026-05-05 21:19 55.31114 -4.62789 13568 ft 325 kts 40°
2026-05-05 21:20 55.32745 -4.60054 13261 ft 323 kts 40°
2026-05-05 21:20 55.34363 -4.57336 12981 ft 320 kts 40°
2026-05-05 21:20 55.35964 -4.54643 12697 ft 318 kts 40°
2026-05-05 21:20 55.37557 -4.51961 12425 ft 316 kts 40°
2026-05-05 21:21 55.39140 -4.49294 12152 ft 314 kts 40°
2026-05-05 21:21 55.40715 -4.46637 11884 ft 313 kts 40°
2026-05-05 21:21 55.42281 -4.43991 11608 ft 312 kts 40°
2026-05-05 21:21 55.43843 -4.41350 11349 ft 311 kts 40°
2026-05-05 21:22 55.45402 -4.38711 11085 ft 310 kts 41°
2026-05-05 21:22 55.46954 -4.36080 10818 ft 308 kts 41°
2026-05-05 21:22 55.48488 -4.33474 10545 ft 304 kts 41°
2026-05-05 21:22 55.50000 -4.30904 10279 ft 300 kts 41°
2026-05-05 21:23 55.51492 -4.28364 10051 ft 295 kts 41°
2026-05-05 21:23 55.52935 -4.25903 10055 ft 282 kts 41°
2026-05-05 21:23 55.54329 -4.23526 9822 ft 278 kts 41°
2026-05-05 21:23 55.55717 -4.21158 9499 ft 277 kts 41°
2026-05-05 21:24 55.57081 -4.18830 9187 ft 276 kts 41°
2026-05-05 21:24 55.58456 -4.16481 8869 ft 275 kts 41°
2026-05-05 21:24 55.59831 -4.14129 8552 ft 274 kts 41°
2026-05-05 21:24 55.61198 -4.11786 8230 ft 274 kts 41°
2026-05-05 21:25 55.62572 -4.09432 7836 ft 276 kts 41°
2026-05-05 21:25 55.63954 -4.07060 7453 ft 277 kts 41°
2026-05-05 21:25 55.65324 -4.04704 7068 ft 272 kts 41°
2026-05-05 21:25 55.66666 -4.02392 6681 ft 266 kts 41°
2026-05-05 21:26 55.67980 -4.00127 6294 ft 261 kts 42°
2026-05-05 21:26 55.69222 -3.97987 5911 ft 257 kts 42°
2026-05-05 21:26 55.70494 -3.95792 5513 ft 253 kts 42°
2026-05-05 21:26 55.71741 -3.93640 5122 ft 249 kts 43°
2026-05-05 21:27 55.72973 -3.91512 4716 ft 245 kts 44°
2026-05-05 21:27 55.74186 -3.89413 4282 ft 240 kts 45°
2026-05-05 21:27 55.75327 -3.87437 4117 ft 223 kts 45°
2026-05-05 21:27 55.76398 -3.85581 4011 ft 206 kts 45°
2026-05-05 21:28 55.77383 -3.83874 3979 ft 195 kts 45°
2026-05-05 21:28 55.78344 -3.82205 3974 ft 191 kts 45°
2026-05-05 21:28 55.79257 -3.80620 3968 ft 176 kts 46°
2026-05-05 21:28 55.80109 -3.79138 3967 ft 169 kts 45°
2026-05-05 21:29 55.80948 -3.77678 3972 ft 167 kts 45°
2026-05-05 21:29 55.81721 -3.76177 3973 ft 163 kts 53°
2026-05-05 21:29 55.82397 -3.74493 4004 ft 172 kts 57°
2026-05-05 21:29 55.83051 -3.72682 4001 ft 175 kts 58°
2026-05-05 21:30 55.83683 -3.70851 3998 ft 172 kts 59°
2026-05-05 21:30 55.84296 -3.69041 4000 ft 171 kts 59°
2026-05-05 21:30 55.84912 -3.67208 3906 ft 176 kts 59°
2026-05-05 21:30 55.85545 -3.65322 3680 ft 177 kts 59°
2026-05-05 21:31 55.86162 -3.63483 3432 ft 170 kts 60°
2026-05-05 21:31 55.86765 -3.61686 3200 ft 168 kts 60°
2026-05-05 21:31 55.87344 -3.59961 2977 ft 168 kts 60°
2026-05-05 21:31 55.87942 -3.58181 2745 ft 165 kts 61°
2026-05-05 21:32 55.88509 -3.56497 2537 ft 152 kts 61°
2026-05-05 21:32 55.89047 -3.54897 2316 ft 149 kts 62°
2026-05-05 21:32 55.89572 -3.53334 2104 ft 145 kts 62°
2026-05-05 21:32 55.90092 -3.51790 1912 ft 146 kts 62°
2026-05-05 21:33 55.90617 -3.50230 1704 ft 146 kts 62°
2026-05-05 21:33 55.91137 -3.48683 1497 ft 146 kts 61°
2026-05-05 21:33 55.91654 -3.47148 1278 ft 142 kts 60°
2026-05-05 21:33 55.92157 -3.45640 1046 ft 140 kts 60°
2026-05-05 21:34 55.92672 -3.44166 811 ft 140 kts 62°
2026-05-05 21:34 55.93159 -3.42680 655 ft 140 kts 63°
2026-05-05 21:34 55.93659 -3.41193 477 ft 137 kts 61°
2026-05-05 21:34 55.94145 -3.39779 272 ft 132 kts 62°
2026-05-05 21:35 55.94614 -3.38402 128 ft 129 kts 61°
2026-05-05 21:35 55.95039 -3.37131 111 ft 106 kts 59°
2026-05-05 21:35 55.95253 -3.36497 110 ft 18 kts 63°
2026-05-05 21:35 55.95206 -3.36364 112 ft 9 kts 149°
2026-05-05 21:36 55.95193 -3.36350 113 ft 1 kts 149°
2026-05-05 21:36 55.95188 -3.36345 114 ft 1 kts 149°
2026-05-05 21:36 55.95177 -3.36334 114 ft 4 kts 149°
2026-05-05 21:36 55.95126 -3.36325 115 ft 10 kts 214°
2026-05-05 21:37 55.95072 -3.36399 115 ft 10 kts 179°
2026-05-05 21:37 55.95018 -3.36400 114 ft 2 kts 212°
2026-05-05 21:37 55.95001 -3.36409 114 ft 5 kts 182°
2026-05-05 21:37 55.94962 -3.36380 113 ft 6 kts 150°
2026-05-05 21:38 55.94946 -3.36363 115 ft 0 kts 149°